STARLINK-35579, 66562

Orbit data source: Space-Track

STARLINK-35579, 66562 is a payload satellite owned by SpaceX/Seattle (US) in LEO that was launched on Fri, 21 Nov 2025 UTC via an FALCON 9 launch vehicle from the Air Force Eastern Test Range (AFETR). Payload-class satellites include a variety of spacecraft equipped with specific instruments for various scientific and technological missions. These include communications satellites like Starlink; space stations such as the ISS; scientific satellites like the Hubble; Earth observation satellites from companies like Planet Labs, Umbra, and HawkEye 360; GPS; miniature CubeSats for education and research; and military/defense satellites.

Loading next visibility...
Identifier
66562, 2025-268F
Orbit
LEO
Country
Flag of USUS
Related business
Manufacturer
SpaceX/Seattle
Mission
Operational Commercial Communications
Bus & Motor
STARLINK V2MO, Unknown motor
Mass
575 kg wet, ~530 kg dry
Launch date (UTC)
2025-11-21 (7 months ago)
Launch vehicle
FALCON 9
Launch site
Air Force Eastern Test Range (AFETR)
Object type
Payload
Rocket body
Debris
Shape & HBR
Box + 2 Pan, 17.7 m
Radar Cross Section
36.964 m², Large (>1 m²)

Expand to show TLE details & history
Last TLE update: 15 hours ago

TLE from 15 hours ago
0 STARLINK-35579
1 66562U 25268F   26171.24098743  .00022390  00000-0  82030-3 0  9994
2 66562  42.9970 127.9117 0001205 262.5325  97.5389 15.27594927 33647
Epoch: 2026-06-20T05:47Z
TLE epoch observation values (Epoch: 2026-06-20T05:47:01.313Z)
Latitude
-0.00009°
Longitude
132.6977°
Altitude
482.888 km
Speed
7.626 km/s
True Right ascension
08h 31m 38s
True Declination
0° 00' 00"
Sunlit
Object was in daylight at epoch
Visualization orbit readout
Latitude
Unknown
Longitude
Unknown
Altitude
Unknown
Speed
Unknown
Apparent Right ascension
Unknown
Apparent Declination
Unknown
Sunlit
N/A
Visualization observer readout
Local Sidereal Time
07:16:52
Azimuth
Unknown
Elevation
Unknown
Doppler factor
Unknown
Orbital elements
Apogee altitude
485.777 km
Perigee altitude
484.123 km
Semi-major axis
6,863.087 km
Eccentricity
0.00012
Inclination
42.997°
RAAN
127.9117°
Arg. of periapsis
262.5325°
True anomaly
97.55259°
Mean anomaly
97.5389°
Eccentric anomaly
97.54574°
Mean motion
3.81737 °/min
Orbital period
94.31 mins
BSTAR
0.0008203
Loading maneuver chart data...
Computing Atmospheric mass density...
Loading historical data...
Loading historical data...
Loading historical data...
Loading historical data...
Loading historical data...
Loading historical data...
Loading historical data...

Documentation

Showing up to 5 results
|